Location: Albuquerque Trailhead
(34.7934°N, 106.3736°W)
Time: 22:44:05
(UTC+00:00)

Cosmos 1812 - Pass Details

Date: 20 June 2021
Orbit: 516 x 519 km, 82.5° (Epoch: 01 August)

Event Time Altitude Azimuth Distance (km) Brightness Sun altitude
Rises 10:02:22 0° 357° (N) 2,640 7.0 -18.5°
Reaches altitude 10° 10:04:32 10° 1° (N) 1,748 6.1 -18.2°
Maximum altitude 10:08:19 60° 82° (E) 595 3.2 -17.6°
Enters shadow 10:11:23 15° 161° (SSE) 1,456 4.7 -17.2°
